Location: Platte
(43.3870°N, 98.8440°W)
Time: 14:44:38
(UTC-05:00)

Daily predictions for brighter satellites

Satellite Brightness Start Highest point End
(mag) Time Altitude Azimuth Time Altitude Azimuth Time Altitude Azimuth
CZ-2D R/B 3.2 20:50:16 10° SSE 20:54:06 70° ENE 20:57:56 10° N
Meteor 2-4 Rocket 3.9 20:50:23 10° N 20:55:51 54° ENE 21:01:28 10° SSE
Cosmos 1939 Rocket 3.9 20:52:54 10° SE 20:56:16 27° ENE 20:59:36 10° N
Cosmos 1633 3.6 20:53:12 10° SSW 20:56:44 51° WNW 21:00:19 10° N
Spot 2 Rocket 3.6 20:52:48 10° SSE 20:57:49 61° ENE 21:02:50 10° N
H-2A R/B 3.7 20:56:31 10° S 21:00:12 49° W 21:03:51 10° NNW
ATLAS 3B R/B 3.1 20:57:11 10° NNW 21:03:43 47° NE 21:09:58 10° ESE
SL-8 R/B 4.0 20:59:38 10° WNW 21:04:23 61° NNE 21:09:09 10° E
Helios 1A 4.3 21:01:32 10° ESE 21:04:56 24° ENE 21:08:21 10° NNE
ERS-1 Rocket 4.4 21:07:02 10° ESE 21:10:39 20° ENE 21:14:17 10° NNE
YAOGAN 6 3.6 21:10:08 11° SE 21:13:03 27° ENE 21:16:04 10° NNE
EXPRESS MD2 3.5 21:12:46 10° W 21:15:13 53° NNW 21:19:22 10° ENE
Cosmos 1553 Rocket 4.2 21:10:31 10° N 21:16:38 75° W 21:22:41 10° S
S3M 4.2 21:10:28 10° N 21:16:46 81° W 21:23:07 10° S
USA 267 3.7 21:12:07 10° SSE 21:18:33 59° SW 21:25:02 10° NW
BREEZE-M DEB (TANK) 1.5 21:14:49 10° WSW 21:18:37 80° NNW 21:20:39 10° ENE
Abrixas 3.8 21:17:48 10° S 21:19:34 16° SE 21:19:46 16° SE
Cosmos 2266 Rocket 3.9 21:13:51 10° S 21:19:46 61° E 21:25:43 10° NNE
Resurs 01 Rocket 2.0 21:15:50 10° S 21:20:16 70° WSW 21:24:44 10° NNW
Cosmos 2151 Rocket 4.2 21:17:08 10° SSW 21:21:27 60° W 21:25:50 10° N
NOSS 2-3 (D) 4.0 21:17:18 10° SW 21:22:00 82° NW 21:27:33 10° NE
BREEZE-M DEB (TANK) 2.6 21:20:01 10° SW 21:22:53 74° SSE 21:30:59 10° ENE
Envisat 3.0 21:22:09 10° SSE 21:27:14 89° ENE 21:32:21 10° NNW
Cosmos 2263 Rocket 2.4 21:21:41 10° NNW 21:27:23 73° WSW 21:33:01 10° SSE
Cosmos 1536 Rocket 4.2 21:23:46 10° NNW 21:28:02 58° W 21:32:17 10° S
Cosmos 1844 Rocket 3.7 21:28:16 10° N 21:33:19 31° NE 21:36:49 17° ESE
BREEZE-M DEB (TANK) 4.3 21:29:50 10° W 21:33:22 42° SSW 21:45:34 11° SE
SPOT 5 4.5 21:31:51 14° E 21:33:47 17° ENE 21:36:46 10° NNE
Cosmos 2315 Rocket 4.2 21:27:43 10° N 21:33:54 56° ENE 21:39:59 10° SSE
Lacrosse 5 2.0 21:29:13 10° SW 21:34:18 82° NW 21:39:24 10° NE
Cosmos 2278 Rocket 4.1 21:31:33 10° N 21:34:52 15° NE 21:38:10 10° E
Cosmos 2322 Rocket 3.1 21:30:17 10° SW 21:35:52 55° WNW 21:41:28 10° NNE
Atlas Centaur 2 4.4 21:33:32 10° WSW 21:39:48 24° SSW 21:45:00 12° SSE
Cosmos 1515 4.2 21:37:27 10° N 21:41:06 41° ENE 21:43:01 23° SE
Helios 1B rocket 2.9 21:37:24 10° NNE 21:41:17 39° E 21:44:31 14° SSE
SJ-11-01 4.3 21:42:06 10° SSE 21:46:47 86° WSW 21:51:29 10° NNW
Cosmos 2237 4.3 21:42:17 10° S 21:47:44 50° ESE 21:53:14 10° NE
Cosmos 1302 Rocket 4.4 21:43:19 10° S 21:48:13 40° ESE 21:53:07 10° NE
ATLAS 2AS CENTAUR R/B 3.2 21:40:44 10° SW 21:48:29 83° NW 21:56:42 10° NE
H-2A R/B 3.4 21:46:54 18° E 21:48:42 21° ENE 21:52:24 10° NNE
SL-16 R/B 3.5 21:44:15 10° SW 21:49:39 43° WNW 21:55:04 10° NNE
CENTAUR R/B 4.5 21:43:59 10° NNW 21:50:01 25° NNE 21:56:30 10° E
Cosmos 2219 Rocket 3.2 21:50:02 22° ESE 21:50:52 23° E 21:55:10 10° NE
Cosmos 1486 Rocket 4.3 21:48:18 10° N 21:53:24 48° ENE 21:56:04 26° SE
Cosmos 1500 3.5 21:54:32 27° SSE 21:56:15 46° E 21:59:58 10° NNE
Cosmos 1110 Rocket 4.0 21:52:03 10° SSW 21:57:13 86° WNW 22:02:27 10° NNE
Cosmos 1544 Rocket 4.4 21:57:19 29° ESE 21:58:15 31° E 22:02:11 10° NNE
SAR-Lupe-4 4.0 21:57:26 35° ESE 21:58:23 43° ENE 22:01:49 10° N
Delta 2 Rocket 4.4 21:55:19 10° WSW 21:58:48 29° S 21:59:35 27° SSE
Abrixas rocket 2.7 21:55:47 10° WNW 21:59:01 53° NNE 22:00:07 34° ENE
NOSS 3-4 (A) 4.3 21:56:26 18° SSE 21:59:43 28° ESE 22:04:59 10° NE
NOSS 3-4 (C) 4.3 21:57:09 20° SSE 21:59:49 27° ESE 22:05:04 10° ENE
SeaSat 1 2.4 21:55:43 10° NNE 22:00:41 88° ESE 22:05:37 10° SSW
Cosmos 405 3.3 22:01:07 40° ESE 22:01:39 43° E 22:05:04 10° NNE
Cosmos 2322 3.6 21:57:18 10° SSW 22:02:57 85° ESE 22:08:41 10° NNE
Okean 2 3.3 21:58:54 10° N 22:03:01 87° W 22:05:30 23° S
Terra 3.8 22:04:46 13° ENE 22:05:29 14° ENE 22:07:52 10° NNE
Cosmos 2360 Rocket 2.4 22:01:24 10° SSW 22:07:01 74° WNW 22:12:40 10° NNE
Cosmos 1331 Rocket 4.1 22:03:04 10° SSW 22:08:15 79° WNW 22:13:32 10° NNE
Cosmos 1975 3.0 22:09:20 42° SE 22:10:05 48° E 22:13:57 10° NNE
Cosmos 1455 Rocket 3.6 22:09:49 35° ESE 22:10:20 37° E 22:14:26 10° NNE
CZ-4B DEB 2.4 22:14:32 73° SW 22:14:42 77° WSW 22:17:35 10° NNW
SAR-Lupe-1 4.1 22:14:38 53° ESE 22:15:05 59° ENE 22:18:37 10° N
OPS 6432 4.2 22:12:05 10° SW 22:15:40 87° NW 22:18:44 10° NE
COSMOS 2428 2.7 22:10:29 10° S 22:16:06 61° ESE 22:21:45 10° NNE
Cosmos 1844 4.0 22:13:06 10° NNW 22:18:40 53° ENE 22:20:44 35° ESE
Cosmos 1241 Rocket 4.4 22:17:31 10° SSW 22:24:03 74° ESE 22:30:32 10° NE
Cosmos 1025 Rocket 4.1 22:20:25 10° NNW 22:24:27 42° W 22:27:32 16° SSW
Cosmos 482 Debris 4.1 22:21:39 10° SW 22:24:55 52° SW 22:24:55 52° SW
MetOp-A 4.0 22:24:20 34° SSE 22:26:47 84° ENE 22:32:10 10° NNW
NOAA 11 4.3 22:24:44 26° S 22:27:55 78° WSW 22:33:27 10° NNW
Cosmos 724 4.4 22:22:20 10° NNW 22:28:12 63° NE 22:30:09 40° ESE
Meteor 1-12 Rocket 4.1 22:25:14 27° S 22:28:17 68° E 22:33:55 10° NNE
Cosmos 2333 Rocket 2.7 22:29:07 38° ESE 22:29:07 38° ESE 22:34:09 10° NE
BREEZE M DEB (TANK) 2.2 22:25:27 10° SW 22:32:12 66° SSE 22:32:13 66° SSE
Cosmos 1354 Rocket 4.2 22:27:41 10° NNW 22:32:57 56° ENE 22:34:09 46° ESE
Cosmos 2333 4.0 22:28:49 10° SSW 22:34:28 79° ESE 22:40:06 10° NNE
Cosmos 1437 Rocket 3.5 22:36:50 40° NE 22:36:50 40° NE 22:39:43 10° NNE
Cosmos 2237 Rocket 3.3 22:42:11 26° ENE 22:42:11 26° ENE 22:45:22 10° NE
Nadezhda 1 Rocket 4.1 22:34:37 10° N 22:40:54 62° E 22:42:45 44° SE
Cosmos 1666 4.1 22:42:52 29° NE 22:42:52 29° NE 22:45:03 10° NNE
NOSS 3-2 (A) 4.0 22:34:10 10° NW 22:41:43 85° NE 22:45:10 39° SE
USA 238 DEB 4.2 22:38:15 10° NW 22:45:07 54° WSW 22:48:31 30° S
USA 238 4.2 22:38:21 10° NW 22:45:14 55° WSW 22:48:36 31° S
Cosmos 1238 Rocket 4.2 22:39:15 10° NNW 22:45:55 70° W 22:49:12 29° S
SL-8 R/B 4.2 22:42:19 10° WNW 22:46:53 45° SW 22:47:12 45° SSW
Cosmos 1980 4.5 22:48:45 35° ENE 22:48:45 35° ENE 22:52:45 10° NE
ERS-1 Rocket 3.5 22:46:58 32° SSW 22:49:02 54° W 22:53:58 10° NNW
Cosmos 1818 3.6 22:44:36 10° SW 22:50:01 77° NW 22:55:30 10° NNE
SPOT 1/Viking Rocket 3.5 22:49:27 60° ESE 22:50:14 70° ENE 22:55:27 10° N
Nimbus 7 Rocket 4.5 22:44:36 10° NNE 22:50:20 52° E 22:50:49 51° ESE
Cosmos 1503 Rocket 3.9 22:47:25 10° NNW 22:52:50 83° ENE 22:53:41 64° SE
SL-08 RB Rocket 3.6 22:53:48 72° SSW 22:54:14 81° WSW 22:58:47 10° NNW
ATLAS 3B R/B 3.6 22:48:11 10° NW 22:54:17 39° WSW 22:57:14 25° SSW
Cosmos 1602 Rocket 4.0 22:50:44 10° N 22:54:18 48° NE 22:54:18 48° NE
ARGOS 3.3 22:54:02 44° SSW 22:55:41 67° WSW 23:01:04 10° NNW
H-2A R/B 4.0 22:57:37 19° NE 22:57:37 19° NE 23:00:01 10° NNE
BREEZE-M DEB 3.0 22:51:13 10° WNW 22:58:04 72° N 22:58:04 72° N
Cosmos 1709 Rocket 4.4 23:00:37 44° E 23:00:37 44° E 23:06:24 10° NNE
ATLAS CENTAUR R/B 3.6 22:59:11 10° N 23:00:51 14° NNE 23:00:51 14° NNE
Cosmos 1743 3.5 23:04:31 49° NNW 23:04:31 49° NNW 23:07:28 10° N
YAOGAN 11 4.1 23:04:45 73° W 23:04:45 73° W 23:08:55 10° NNW
USA 245 4.2 23:09:10 49° WSW 23:09:29 50° WSW 23:13:25 10° NNW
SPOT 5 3.1 23:11:05 55° WSW 23:11:29 57° WSW 23:16:02 10° NNW
BREEZE M DEB (TANK) 3.9 23:10:25 10° WNW 23:14:50 39° NNW 23:14:50 39° NNW
COSMOS 2455 3.9 23:11:18 10° NNW 23:16:42 33° NE 23:17:33 32° ENE
Cosmos 1844 Rocket 3.5 23:11:59 10° NW 23:17:19 42° WSW 23:18:29 37° SW
Cosmos 1626 Rocket 4.0 23:13:30 10° N 23:17:04 58° NNW 23:17:04 58° NNW
Lacrosse 5 4.0 23:13:45 10° WNW 23:17:56 25° NNW 23:22:07 10° NE
Cosmos 2292 Rocket 4.5 23:17:35 52° S 23:19:28 87° W 23:25:06 10° N
Cosmos 2278 Rocket 2.0 23:14:11 10° NNW 23:19:53 81° ENE 23:20:01 80° E
NOSS 3-2 (C) 4.0 23:14:40 10° NW 23:22:13 75° WSW 23:24:12 54° S
NOSS 0 Rocket 3.8 23:22:04 71° S 23:22:48 83° ESE 23:29:04 10° NNE
Landsat 7 4.1 23:27:50 66° NW 23:27:50 66° NW 23:32:02 10° NNW
H-2A R/B 2.5 23:27:33 49° WSW 23:27:48 49° W 23:32:37 10° NNW
Meteor 1-21 4.3 23:23:12 10° NNW 23:28:48 68° W 23:29:14 65° SW
Cosmos 1992 Rocket 4.1 23:29:34 73° NNW 23:29:34 73° NNW 23:34:24 10° NNE
Cosmos 968 Rocket 3.8 23:28:25 10° NNW 23:32:43 58° NNE 23:32:43 58° NNE
Cosmos 2219 Rocket 2.8 23:31:38 29° SW 23:34:23 54° WNW 23:39:57 10° NNE
Meteor 2-9 Rocket 4.2 23:41:01 78° WNW 23:41:01 78° WNW 23:46:32 10° N
CENTAUR R/B 3.1 23:34:20 10° NNW 23:42:10 69° NE 23:43:45 58° ESE
Terra 2.5 23:43:40 53° NNW 23:43:40 53° NNW 23:47:23 10° NNW
ATLAS CENTAUR R/B 4.2 23:31:39 10° NW 23:45:14 43° NNE 23:47:42 31° ENE
NOSS 3-4 (A) 4.0 23:43:58 10° SW 23:50:09 59° NW 23:56:36 10° NNE
NOSS 3-4 (C) 3.9 23:44:04 10° SW 23:50:15 59° NW 23:56:42 10° NNE
SL-16 R/B 3.6 23:53:30 27° NE 23:53:30 27° NE 23:56:11 10° NE
GP-B 4.5 23:50:37 10° N 23:53:46 37° NW 23:53:46 37° NW
